Location: Molveno
(46.1500°N, 10.9667°E)
Time: 01:00:17
(UTC+00:00)

Cosmos 2221 - Pass Details

Date: 05 July 2020
Orbit: 592 x 617 km, 82.5° (Epoch: 11 August)

Event Time Altitude Azimuth Distance (km) Brightness Sun altitude
Rises 20:53:44 0° 357° (N) 2,897 7.1 -13.5°
Reaches altitude 10° 20:56:05 10° 4° (N) 1,984 5.9 -13.8°
Maximum altitude 21:00:15 41° 76° (ENE) 886 3.2 -14.2°
Enters shadow 21:02:30 23° 133° (SE) 1,302 3.6 -14.4°
